This is the latest recevied weather packets stored in our database for station/object DL7KST-13. If no packets are shown the sender has not sent any weather packets the latest 1 day(s).
| Time | Temp. | Humidity | Pressure | Rain* | Wind** | Luminosity | Snow |
|---|---|---|---|---|---|---|---|
| 1778098279 | 9.44° C | 90% | 998.8 hPa | 0 mm | 0.89 m/s, 72° | - | - |
| 1778097074 | 9.44° C | 90% | 998.7 hPa | 0 mm | 1.34 m/s, 46° | - | - |
| 1778094665 | 9.44° C | 93% | 998.5 hPa | 0 mm | 0.89 m/s, 57° | - | - |
| 1778092254 | 10° C | 92% | 998 hPa | 0 mm | 0.45 m/s, 83° | - | - |
| 1778088640 | 10° C | 91% | 997.8 hPa | 0 mm | 0.89 m/s, 44° | - | - |
| 1778087434 | 10° C | 90% | 997.7 hPa | 0 mm | 0 m/s | - | - |
| 1778086229 | 10.56° C | 91% | 997.6 hPa | 0 mm | 0.89 m/s, 63° | - | - |
| 1778083822 | 10.56° C | 92% | 997.7 hPa | 0 mm | 0.89 m/s, 43° | - | - |
| 1778076589 | 10.56° C | 92% | 997.6 hPa | 0 mm | 0.45 m/s, 72° | - | - |
| 1778074180 | 10.56° C | 92% | 997.6 hPa | 0 mm | 0.89 m/s, 64° | - | - |
| 1778069359 | 10.56° C | 94% | 997.4 hPa | 0.25 mm | 0.45 m/s, 49° | - | - |
| 1778066950 | 10.56° C | 95% | 996.7 hPa | 0.25 mm | 1.79 m/s, 40° | - | - |
| 1778063335 | 10.56° C | 96% | 996.3 hPa | 0.25 mm | 0.45 m/s, 28° | - | - |
| 1778062129 | 10° C | 96% | 996.1 hPa | 0.51 mm | 0.45 m/s, 102° | - | - |
| 1778059718 | 10° C | 96% | 995.6 hPa | 1.78 mm | 0.89 m/s, 69° | - | - |
| 1778058514 | 10° C | 96% | 995.4 hPa | 4.06 mm | 0.89 m/s, 85° | - | - |
| 1778057311 | 10.56° C | 96% | 995.2 hPa | 5.33 mm | 1.34 m/s, 65° | - | - |
| 1778053693 | 10° C | 96% | 995.1 hPa | 1.52 mm | 0 m/s | - | - |
| 1778052489 | 10° C | 96% | 995 hPa | 0.76 mm | 0.89 m/s, 38° | - | - |
| 1778051284 | 10° C | 96% | 995 hPa | 0.51 mm | 0 m/s | - | - |
| 1778048874 | 10° C | 96% | 995 hPa | 1.27 mm | 0.89 m/s, 55° | - | - |
| 1778046464 | 10° C | 96% | 994.9 hPa | 1.27 mm | 0 m/s | - | - |
| 1778045260 | 10° C | 96% | 995.1 hPa | 1.27 mm | 0.89 m/s, 72° | - | - |
| 1778044055 | 10° C | 96% | 995.2 hPa | 1.27 mm | 0.45 m/s, 51° | - | - |
| 1778040439 | 10.56° C | 96% | 995.5 hPa | 2.03 mm | 0.45 m/s, 102° | - | - |
* Rain latest hour (hover to see other rain measurements)
** Current wind speed in m/s (hover to see current wind gust speed)